Regional Weather Roundup
Issued by NWS

Home | Current Version | Previous Version | Graphics & Text | Print | Product List | Glossary Off
Versions: 1 2 3 4 5 6 7 8 9 10 11 12 13 14 15 16 17 18 19 20 21 22 23 24 25 26 27 28 29 30 31 32 33 34 35 36 37 38 39 40 41 42 43 44 45 46 47 48 49 50

000
ASUS43 KMKX 280300
RWRWI

WISCONSIN REGIONAL WEATHER ROUNDUP
NATIONAL WEATHER SERVICE MILWAUKEE/SULLIVAN WI
1000 PM CDT MON APR 27 2015

NOTE: "FAIR" INDICATES FEW OR NO CLOUDS BELOW 12,000 FEET WITH NO
SIGNIFICANT WEATHER AND/OR OBSTRUCTIONS TO VISIBILITY.

WIZ001-002-006>008-014>016-023>028-280400-
NORTHWEST WISCONSIN

CITY           SKY/WX    TMP DP  RH WIND       PRES   REMARKS
SUPERIOR ARPT  CLEAR     42  32  66 CALM      30.17R
ASHLAND        CLEAR     38  29  70 N5        30.17R WCI  34
HAYWARD        CLEAR     44  32  62 CALM      30.15S
SIREN          CLEAR     49  26  41 CALM      30.14S
CUMBERLAND     CLEAR     54  25  32 CALM      30.14R
RICE LAKE      CLEAR     50  32  50 E5        30.16R
CHETEK         CLEAR     55  31  40 CALM      30.15R
LADYSMITH      CLEAR     50  28  42 NE3       30.16S
EAU CLAIRE     NOT AVBL
MENOMONIE      CLEAR     55  28  35 N5        30.13R
NEW RICHMOND   CLEAR     49  31  48 CALM      30.15R
OSCEOLA        CLEAR     50  33  53 CALM      30.16S
$$

WIZ003>005-009-010-017-018-280400-
NORTH CENTRAL WISCONSIN

CITY           SKY/WX    TMP DP  RH WIND       PRES   REMARKS
MANITOWISH WTR FAIR      41  30  64 CALM      30.15S
ARBOR VITAE    CLEAR     44  29  56 CALM      30.15S
WOODRUFF       CLEAR     44  29  56 CALM      30.15S
RHINELANDER    CLEAR     47  27  45 N5        30.15S
EAGLE RIVER    CLEAR     38  28  66 CALM      30.15S
LAND O LAKES   CLEAR     35  29  79 CALM      30.16S
PHILLIPS       CLEAR     43  30  61 CALM      30.15R
TOMAHAWK       CLEAR     47  27  44 CALM      30.15S
MEDFORD        CLEAR     48  29  48 N6        30.14S
MERRILL        CLEAR     48  27  43 N6        30.14R
$$

WIZ029-030-035-036-043>047-280400-
CENTRAL WISCONSIN

CITY           SKY/WX    TMP DP  RH WIND       PRES   REMARKS
WAUSAU         CLEAR     54  26  34 N7        30.11R
MOSINEE        CLEAR     54  25  32 N7        30.13R
MARSHFIELD     CLEAR     57  28  33 N10       30.12R
STEVENS POINT  CLEAR     50  26  40 N3        30.11S
WAUPACA        CLEAR     50  38  62 E9        30.13R
WAUTOMA        NOT AVBL
WISC RAPIDS    CLEAR     54  26  34 N7        30.12R
CAMP DOUGLAS   NOT AVBL
$$

WIZ011>013-019>022-031-037>040-048>050-280400-
NORTHEAST WISCONSIN

CITY           SKY/WX    TMP DP  RH WIND       PRES   REMARKS
ANTIGO         CLEAR     47  31  54 N8        30.13S
SHAWANO        CLEAR     46  35  65 E7        30.15R
OCONTO         CLEAR     38  34  86 CALM      30.15R
STURGEON BAY   CLEAR     43  30  61 NE6       30.18S
GREEN BAY      CLEAR     45  33  63 E3        30.15R
MANITOWOC      NOT AVBL
APPLETON       CLEAR     46  32  57 E7        30.14R
CLINTONVILLE   CLEAR     46  36  66 E7        30.14R
OSHKOSH        CLEAR     46  34  62 E8        30.13R
$$

WIZ032>034-041-042-053>061-280400-
SOUTHWEST WISCONSIN

CITY           SKY/WX    TMP DP  RH WIND       PRES   REMARKS
LA CROSSE      CLEAR     53  36  52 N3        30.10R
SPARTA         CLEAR     46  33  62 CALM      30.11S
VIROQUA        CLEAR     55  31  39 CALM      30.11R
BOSCOBEL       CLEAR     50  34  54 CALM      30.11R
PRAIRIE DU CHI CLEAR     51  36  57 CALM      30.10S
PLATTEVILLE    CLEAR     55  33  43 CALM      30.10S
$$

WIZ056-057-062-063-064-067-068-280400-
SOUTH CENTRAL WISCONSIN

CITY           SKY/WX    TMP DP  RH WIND       PRES   REMARKS
REEDSBURG      CLEAR     55  34  45 CALM      30.08S
BARABOO/DELLS  CLEAR     51  30  45 CALM      30.09R
LONE ROCK      NOT AVBL
MINERAL POINT  CLEAR     55  30  38 CALM      30.10R
MADISON        CLEAR     53  36  52 SE5       30.10R
MIDDLETON      CLEAR     48  37  65 CALM      30.08S
WATERTOWN      CLEAR     45  35  69 E10       30.12R
MONROE         CLEAR     55  32  41 S5        30.09S
JANESVILLE     CLEAR     46  36  66 E8        30.10R
$$

WIZ051-052-058>065-066-070>072-280400-
SOUTHEAST WISCONSIN

CITY           SKY/WX    TMP DP  RH WIND       PRES   REMARKS
MILWAUKEE      CLEAR     41  31  67 N3        30.14S
WAUKESHA       CLEAR     39  32  75 E3        30.14R
MILWAUKEE/TIMM FAIR      41  30  65 CALM      30.14R
RACINE         CLEAR     41  32  70 NW5       30.15R
BURLINGTON     CLEAR     40  32  73 E6        30.14R
KENOSHA        CLEAR     41  32  70 N5        30.13R
FOND DU LAC    CLEAR     45  32  60 E10       30.13R
SHEBOYGAN      CLEAR     36  32  85 CALM      30.14R
WEST BEND      FAIR      41  32  70 CALM      30.14R
JUNEAU         CLEAR     45  35  68 E13       30.13R
$$

LSZ147-162-280400-
LAKE SUPERIOR

STATION/POSITION TIME  TEMP    WIND        PRES    WAVE
                       AIR SEA DIR/SP/G            HT/PER
                 (UTC) (F)     (DEG/KT/KT) (MB)    (FT/S)
W MID LAKE BUOY  0150   36 35   10/  6/  6 1023.1F   0
DEVILS ISLAND    0200   44      50/  3/  4 1022.2R
PORT WING        0200   39      40/  3/  7 1021.0S
SAXON HARBOR     0200   41        CALM     1021.0
$$

LMZ867-665-643>646-280400-
LAKE MICHIGAN

STATION/POSITION TIME  TEMP    WIND        PRES    WAVE
                       AIR SEA DIR/SP/G            HT/PER
                 (UTC) (F)     (DEG/KT/KT) (MB)    (FT/S)
CHAMBERS ISLAND  0200   43      40/ 10/ 12 1021.3R
NORTHPORT PIER   0200   45      30/  8/ 11 1021.0R
SISTER BAY       0217   44      CALM  /  3   N/A
KEWAUNEE LAKESHO 0200   41     300/  2/  3 1020.0R
SHEBOYGAN LAKESH 0200   44      10/  7/  8 1021.0R
PORT WASHINGTON  0200   45     350/  3/  4 1021.0R
MILWAUKEE LAKESH 0200   44     360/  5/  6   N/A
KENOSHA   LAKESH 0200   44      10/  9/ 10 1020.0R
$$

TC  - TEMPERATURE IN CELSIUS
VSB - VISIBILITY IN STATUTE MILES
WCI - WIND CHILL INDEX
HX  - HEAT INDEX




USA.gov is the U.S. government's official web portal to all federal, state and local government web resources and services.